[[{"header":{"parameterUnit":"m.s-1","parameterCategory":1,"la1":30.2991,"la2":30.254,"lo1":-89.0895,"lo2":-89.0444,"dy":0.0017,"dx":0.0017,"nx":28,"ny":28,"refTime":"2024-07-19T03:00:00:Z","depth":0,"parameterNumber":2,"parameterNumberName":"U-component_of_WINDS"},"data":[0,0,0,0,0,0,0,0,0,0,0,0,0,0,0,0,0,0,0,0,0,0,0,0,0,0,0,0,0,0,0,0,0,0,0,0,0,0,0,0,0,0,0,0,0,0,0,0,0,0,0,0,0,0,0,0,0,0,-2.7892,-2.7893,0,-2.798,-2.7981,-2.7982,-2.7956,-2.7955,-2.7953,-2.7951,-2.8045,-2.805,-2.8054,0,0,0,0,0,0,0,0,0,0,0,0,0,-2.7706,-2.7709,-2.7891,-2.7893,-2.7894,-2.798,-2.7981,-2.7982,-2.7957,-2.7955,-2.7952,-2.795,-2.8044,-2.8049,-2.8054,0,0,0,0,0,0,0,0,0,0,0,0,0,-2.779,-2.7711,-2.7891,-2.7891,-2.7892,-2.798,-2.7981,-2.7983,-2.7957,-2.7954,-2.7952,-2.7949,-2.8042,-2.8049,-2.8055,-2.8149,0,0,-2.8074,-2.8077,0,0,0,0,0,0,0,0,-2.7785,-2.7797,-2.789,-2.7891,-2.7893,-2.7954,-2.795,-2.8038,-2.7958,-2.7933,-2.7951,-2.7948,-2.8018,-2.8026,-2.8049,-2.8153,-2.8157,-2.8075,-2.8079,-2.8081,-2.8083,0,0,0,0,0,0,0,-2.7779,-2.7793,-2.7927,-2.7892,-2.7893,-2.7889,-2.7898,-2.7967,-2.799,-2.7935,-2.7933,-2.7944,-2.8018,-2.8042,-2.8051,-2.8159,-2.8075,-2.808,-2.8084,-2.8087,-2.8348,-2.8351,0,0,0,0,0,0,-2.7772,-2.7788,-2.7924,-2.7929,-2.7831,-2.7894,-2.7904,-2.7937,-2.7989,-2.7994,-2.7946,-2.7942,-2.8033,-2.8043,-2.8054,-2.8168,-2.8081,-2.8087,-2.8091,-2.8345,-2.8349,-2.8352,0,0,0,0,0,0,-2.7768,-2.7784,-2.792,-2.7858,-2.7875,-2.79,-2.7938,-2.7941,-2.7965,-2.7997,-2.8002,-2.7967,-2.8031,-2.8045,-2.8126,-2.8171,-2.809,-2.8096,-2.8341,-2.8346,-2.835,-2.8397,0,0,0,0,0,0,-2.7763,-2.7783,-2.7817,-2.7859,-2.7879,-2.7989,-2.7941,-2.7944,-2.7976,-2.7972,-2.8018,-2.8023,-2.803,-2.8116,-2.8132,-2.8178,-2.8101,-2.8337,-2.8343,-2.8349,-2.8392,-2.8403,-2.8413,0,0,0,0,0,-2.7756,-2.7827,-2.7819,-2.7836,-2.7922,-2.7991,-2.8003,-2.8009,-2.7979,-2.8015,-2.8036,-2.8021,-2.8164,-2.8125,-2.8142,-2.8191,-2.8334,-2.8341,-2.8348,-2.8387,-2.8401,-2.8412,0,0,0,0,0,0,-2.7791,-2.7833,-2.7824,-2.7911,-2.7948,-2.7987,-2.8032,-2.8023,-2.807,-2.8064,-2.8071,-2.8082,-2.8165,-2.8186,-2.8142,-2.8286,-2.8245,-2.8256,-2.8269,-2.8282,-2.8292,-2.8285,-2.8106,0,0,0,0,0,-2.7809,-2.786,-2.7895,-2.7968,-2.7987,-2.8007,-2.8037,-2.8039,-2.8078,-2.8093,-2.812,-2.816,-2.8214,-2.825,-2.8301,-2.8396,-2.8406,-2.8438,-2.8449,-2.8457,-2.8466,-2.852,-2.8535,-2.8375,-2.8375,-2.8375,0,0,-2.7845,-2.7875,-2.7907,-2.7975,-2.8004,-2.8059,-2.802,-2.8079,-2.812,-2.8103,-2.818,-2.8202,-2.8247,-2.8336,-2.8376,-2.8357,-2.8513,-2.8466,-2.8473,-2.8477,-2.8529,-2.8544,-2.8557,-2.838,-2.8379,-2.8378,0,0,-2.7941,-2.7968,-2.8032,-2.8062,-2.8106,-2.8119,-2.8135,-2.8177,-2.819,-2.8268,-2.8257,-2.8308,-2.84,-2.8433,-2.8462,-2.8574,-2.8562,-2.8591,-2.8645,-2.8697,-2.8709,-2.8721,-2.8761,-2.8776,-2.86,-2.86,-2.86,0,-2.7981,-2.8062,-2.8067,-2.8127,-2.8159,-2.8146,-2.8212,-2.8242,-2.8301,-2.8324,-2.8301,-2.8418,-2.8448,-2.8544,-2.8572,-2.8596,-2.8615,-2.8584,-2.8707,-2.8718,-2.8729,-2.8768,-2.8783,-2.8603,-2.8603,-2.8602,-2.8602,0,-2.811,-2.8167,-2.8214,-2.827,-2.8308,-2.8371,-2.8387,-2.8425,-2.8425,-2.8441,-2.8522,-2.8558,-2.8617,-2.864,-2.864,-2.8738,-2.8725,-2.8705,-2.8663,-2.8747,-2.8784,-2.8799,-2.8607,-2.8606,-2.8605,-2.8605,0,0,-2.8227,-2.8287,-2.8304,-2.8331,-2.838,-2.8425,-2.849,-2.8547,-2.8579,-2.8622,-2.8677,-2.8757,-2.8739,-2.8772,-2.8777,-2.8823,-2.891,-2.8797,-2.8798,-2.8817,-2.9022,-2.9037,-2.9054,-2.8904,-2.8907,-2.8909,-2.9019,0,-2.8326,-2.8437,-2.8445,-2.8546,-2.86,-2.859,-2.8646,-2.8684,-2.8702,-2.8752,-2.8772,-2.8829,-2.8801,-2.8821,-2.8866,-2.889,-2.8952,-2.8882,-2.8957,-2.8959,-2.8944,-2.9073,-2.9088,-2.9189,-2.9033,-2.9035,-2.9037,0,-2.8456,-2.8502,-2.8608,-2.8652,-2.8675,-2.8725,-2.8779,-2.8826,-2.887,-2.888,-2.8919,-2.8918,-2.8986,-2.8944,-2.904,-2.8992,-2.9024,-2.9041,-2.9045,-2.9051,-2.9002,-2.9083,-2.9222,-2.9237,-2.906,-2.9058,-2.9056,0,-2.8531,-2.862,-2.8695,-2.8718,-2.8771,-2.8807,-2.8831,-2.8872,-2.8907,-2.8955,-2.8978,-2.9034,-2.9065,-2.911,-2.9125,-2.9093,-2.9222,-2.9179,-2.9233,-2.9233,-2.9259,-2.9257,-2.9405,-2.9281,-2.928,-2.928,-2.928,0,-2.8641,-2.8706,-2.873,-2.8776,-2.885,-2.886,-2.8934,-2.8956,-2.8994,-2.9046,-2.9042,-2.9091,-2.9108,-2.9162,-2.9175,-2.9253,-2.9267,-2.9279,-2.9281,-2.9279,-2.9277,-2.9299,-2.9292,-2.9284,-2.9283,-2.9283,-2.9282,0,-2.8736,-2.8754,-2.8836,-2.888,-2.8892,-2.8945,-2.8984,-2.903,-2.9048,-2.9115,-2.9131,-2.916,-2.9223,-2.9243,-2.9319,-2.9328,-2.942,-2.9416,-2.9404,-2.9405,-2.9457,-2.9452,-2.9624,-2.9647,-2.9507,-2.9508,-2.951,0,-2.8804,-2.8854,-2.8904,-2.8938,-2.8963,-2.9019,-2.9054,-2.9067,-2.9105,-2.916,-2.92,-2.9262,-2.9312,-2.9414,-2.9443,-2.9502,-2.95,-2.9556,-2.9509,-2.9506,-2.9502,-2.9498,-2.9504,-2.9565,-2.9566,-2.9567,-2.9568,0,-2.8924,-2.8931,-2.8981,-2.9036,-2.9078,-2.9122,-2.9165,-2.9194,-2.9213,-2.9257,-2.932,-2.9359,-2.9437,-2.95,-2.956,-2.9588,-2.9582,-2.9583,-2.9599,-2.9597,-2.9588,-2.9594,-2.9428,-2.9579,-2.9578,-2.9577,-2.9577,-2.9576,-2.9008,-2.9053,-2.9095,-2.9152,-2.9186,-2.9226,-2.9272,-2.9296,-2.9349,-2.9413,-2.9418,-2.9488,-2.9534,-2.9614,-2.9645,-2.9701,-2.9685,-2.9707,-2.9713,-2.9718,-2.9723,-2.9579,-2.9712,-2.9712,-2.9712,-2.9711,-2.9711,0,-2.9128,-2.9155,-2.9207,-2.9267,-2.9313,-2.9303,-2.9351,-2.939,-2.9451,-2.9493,-2.9543,-2.9618,-2.9679,-2.9714,-2.9776,-2.9815,-2.9814,-2.983,-2.9828,-2.9834,-2.9733,-2.9713,-2.983,-2.983,-2.983,-2.983,-2.983,-2.983,-2.9195,-2.9271,-2.9283,-2.9377,-2.9405,-2.9471,-2.9499,-2.9538,-2.9572,-2.9655,-2.9706,-2.9728,-2.9769,-2.9834,-2.9891,-2.99,-2.9923,-2.9941,-2.9949,-2.9853,-2.9841,-2.9829,-2.9811,-2.9946,-2.9946,-3.0045,-3.0046,-3.0047]},{"header":{"parameterUnit":"m.s-1","parameterCategory":1,"la1":30.2991,"la2":30.254,"lo1":-89.0895,"lo2":-89.0444,"dy":0.0017,"dx":0.0017,"nx":28,"ny":28,"refTime":"2024-07-19T03:00:00:Z","depth":0,"parameterNumber":3,"parameterNumberName":"V-component_of_WINDS"},"data":[0,0,0,0,0,0,0,0,0,0,0,0,0,0,0,0,0,0,0,0,0,0,0,0,0,0,0,0,0,0,0,0,0,0,0,0,0,0,0,0,0,0,0,0,0,0,0,0,0,0,0,0,0,0,0,0,0,0,4.0109,4.0109,0,4.0118,4.0118,4.0118,4.0073,4.0072,4.007,4.0069,4.0078,4.0079,4.0081,0,0,0,0,0,0,0,0,0,0,0,0,0,4.005,4.0052,4.0109,4.0109,4.0109,4.0118,4.0118,4.0118,4.0073,4.0071,4.007,4.0068,4.0077,4.0079,4.0081,0,0,0,0,0,0,0,0,0,0,0,0,0,4.0069,4.0052,4.0109,4.0087,4.0086,4.0118,4.0118,4.0118,4.0073,4.0071,4.0069,4.0068,4.0077,4.0079,4.0081,4.0134,0,0,4.0088,4.0089,0,0,0,0,0,0,0,0,4.0068,4.0071,4.009,4.0089,4.0087,4.0092,4.0101,4.0123,4.0074,4.0078,4.0069,4.0067,4.0084,4.0086,4.0092,4.0134,4.0134,4.0088,4.0089,4.009,4.0091,0,0,0,0,0,0,0,4.0067,4.0071,4.0112,4.0091,4.0089,4.0077,4.0078,4.0105,4.0092,4.0078,4.0074,4.0076,4.0083,4.009,4.0091,4.0135,4.0088,4.009,4.0091,4.0092,4.0219,4.0221,0,0,0,0,0,0,4.0069,4.007,4.0112,4.0113,4.0073,4.008,4.008,4.0093,4.0092,4.0089,4.0078,4.0074,4.0087,4.0089,4.0092,4.0151,4.009,4.0092,4.0093,4.0217,4.0219,4.0221,0,0,0,0,0,0,4.0068,4.0073,4.0112,4.009,4.0094,4.0083,4.0097,4.0094,4.01,4.0092,4.0089,4.0087,4.0085,4.0088,4.0123,4.0151,4.0093,4.0095,4.0214,4.0217,4.022,4.0273,0,0,0,0,0,0,4.0066,4.0073,4.0093,4.0091,4.0096,4.0144,4.0099,4.0095,4.0104,4.01,4.01,4.0098,4.0084,4.012,4.0125,4.0153,4.0097,4.0212,4.0216,4.0219,4.0268,4.0277,4.0285,0,0,0,0,0,4.0064,4.0108,4.0094,4.01,4.0121,4.0145,4.0148,4.0131,4.0107,4.0127,4.0121,4.0098,4.0148,4.0124,4.0129,4.0158,4.021,4.0215,4.0219,4.0265,4.0275,4.0284,0,0,0,0,0,0,4.0113,4.0107,4.0092,4.0137,4.0142,4.0138,4.0162,4.0143,4.0156,4.015,4.0129,4.013,4.0167,4.0167,4.014,4.0208,4.0174,4.018,4.0207,4.0217,4.0225,4.0224,4.0099,0,0,0,0,0,4.0129,4.015,4.0143,4.0183,4.0187,4.0174,4.0184,4.0171,4.0175,4.0177,4.0174,4.0179,4.0195,4.0207,4.0222,4.0269,4.0267,4.0291,4.0299,4.0306,4.0311,4.0334,4.0344,4.0237,4.0237,4.0237,0,0,4.0162,4.0162,4.0176,4.0193,4.0195,4.0216,4.0176,4.0201,4.0215,4.0181,4.0212,4.0211,4.0215,4.0255,4.0273,4.0256,4.034,4.0312,4.0317,4.0318,4.0339,4.035,4.0359,4.024,4.0239,4.0239,0,0,4.0233,4.0236,4.0268,4.0271,4.0275,4.0266,4.0274,4.0273,4.027,4.0302,4.0276,4.0293,4.0323,4.0326,4.0332,4.0403,4.0381,4.0408,4.045,4.0473,4.0481,4.0489,4.0512,4.0521,4.0414,4.0414,4.0414,0,4.0274,4.0304,4.0287,4.0312,4.032,4.0289,4.0321,4.0325,4.0334,4.034,4.032,4.0356,4.0356,4.0396,4.0414,4.042,4.0427,4.0407,4.0482,4.0489,4.0495,4.0517,4.0526,4.0417,4.0417,4.0416,4.0416,0,4.0353,4.0375,4.04,4.0409,4.0419,4.0448,4.0434,4.0447,4.0433,4.0426,4.0458,4.0458,4.0471,4.048,4.0467,4.0518,4.0507,4.0485,4.045,4.0509,4.0529,4.0538,4.0421,4.042,4.0419,4.0418,0,0,4.0454,4.0452,4.0461,4.0464,4.0466,4.0482,4.0509,4.0522,4.0533,4.054,4.0561,4.0587,4.0566,4.0572,4.0559,4.058,4.0633,4.0555,4.0555,4.0568,4.0687,4.0702,4.0712,4.062,4.0622,4.0623,4.0686,0,4.0521,4.0567,4.0551,4.0597,4.0616,4.0587,4.061,4.0614,4.0608,4.0623,4.0617,4.0634,4.0607,4.061,4.0629,4.0623,4.0657,4.0618,4.0638,4.0639,4.0635,4.0723,4.0739,4.0799,4.0694,4.0696,4.0697,0,4.0606,4.0615,4.0663,4.066,4.0668,4.0689,4.0699,4.0714,4.0717,4.0711,4.0718,4.07,4.0726,4.0692,4.0726,4.07,4.0708,4.0706,4.0708,4.0707,4.067,4.0723,4.0817,4.0826,4.0709,4.0708,4.0707,0,4.0672,4.0697,4.0728,4.0732,4.073,4.0745,4.0745,4.0746,4.0755,4.0764,4.0768,4.0781,4.0787,4.0796,4.0782,4.0759,4.0817,4.0783,4.0812,4.0812,4.0824,4.0823,4.0919,4.0832,4.0832,4.0832,4.0832,0,4.0747,4.0777,4.0758,4.0777,4.0809,4.0791,4.0823,4.082,4.0821,4.0838,4.0815,4.0832,4.0813,4.0828,4.0817,4.0845,4.0849,4.0844,4.084,4.0845,4.0845,4.0848,4.0842,4.0834,4.0834,4.0833,4.0833,0,4.0826,4.0814,4.0846,4.0841,4.0841,4.0865,4.086,4.0877,4.087,4.0892,4.0897,4.0885,4.0901,4.0888,4.0905,4.0897,4.0934,4.0926,4.0933,4.093,4.0958,4.0955,4.1058,4.1069,4.0978,4.0979,4.0979,0,4.0874,4.0896,4.0893,4.0903,4.0904,4.0921,4.0929,4.0912,4.0921,4.0926,4.0942,4.0956,4.0966,4.0993,4.0986,4.0998,4.0988,4.1023,4.099,4.0993,4.0986,4.0984,4.0985,4.1029,4.103,4.1031,4.1032,0,4.0959,4.0952,4.0965,4.0975,4.0985,4.0993,4.0998,4.1008,4.099,4.1002,4.1018,4.1026,4.1041,4.1055,4.1064,4.1064,4.1045,4.1043,4.105,4.1053,4.1056,4.1053,4.0949,4.104,4.1039,4.1039,4.1038,4.1038,4.1022,4.104,4.104,4.1055,4.1057,4.1062,4.1077,4.1072,4.1085,4.1096,4.1085,4.1104,4.1105,4.1116,4.1118,4.1132,4.1117,4.1128,4.113,4.1132,4.1135,4.1055,4.1134,4.1133,4.1133,4.1133,4.1133,0,4.1105,4.1103,4.1117,4.1125,4.1136,4.1117,4.1122,4.1132,4.1149,4.1152,4.1162,4.118,4.1193,4.1187,4.1198,4.121,4.1202,4.1214,4.1211,4.1211,4.1149,4.1141,4.122,4.122,4.122,4.122,4.122,4.122,4.1149,4.1176,4.1169,4.1198,4.1196,4.1214,4.1218,4.1222,4.1224,4.1245,4.1255,4.1251,4.125,4.1261,4.1272,4.127,4.1274,4.1289,4.1283,4.1225,4.1216,4.1208,4.12,4.129,4.129,4.1344,4.1345,4.1345]}]]